Location: Baia Mare
(47.6567°N, 23.5850°E)
Time: 14:31:31
(UTC+03:00)

ISS - Pass Details

Date: 20 July 2019
Orbit: 409 x 418 km, 51.6° (Epoch: 21 July)

Event Time Altitude Azimuth Distance (km) Brightness Sun altitude
Rises 02:28:44 0° 293° (WNW) 2,350 0.2 -20.4°
Reaches altitude 10° 02:30:50 10° 295° (WNW) 1,484 -0.9 -20.3°
Maximum altitude 02:34:10 73° 21° (NNE) 434 -3.7 -20.2°
Drops below altitude 10° 02:37:28 10° 107° (ESE) 1,475 -1.0 -20.0°
Sets 02:39:33 0° 109° (ESE) 2,333 0.0 -19.9°
